CW7748 Weather Reports


Display with metric or nautical units.
time (UTC)temp
F
wind
direction
speed
MPH
gust
MPH
rain 1hr
in
rain 24hr
in
rain mn
in
humidity
%
barometer
mb
20181016053056 77 137 0.0 0.0 0.00 0.00 0.00 91 1018.7
20181016052540 77 100 0.0 0.0 0.00 0.00 0.00 91 1018.8
20181016052049 77 100 0.0 1.0 0.00 0.00 0.00 91 1018.9
20181016051446 77 100 0.0 3.0 0.00 0.00 0.00 91 1018.8
20181016051055 77 100 0.0 3.0 0.00 0.00 0.00 91 1018.7
20181016050456 77 73 0.0 0.0 0.00 0.00 0.00 91 1018.8
20181016050105 77 66 0.0 0.0 0.00 0.00 0.00 91 1018.8
20181016045503 77 66 0.0 0.0 0.00 0.00 0.00 91 1018.8
20181016045106 77 66 0.0 0.0 0.00 0.00 0.00 91 1018.8
20181016044501 78 66 0.0 0.0 0.00 0.00 0.00 91 1018.8
20181016044009 78 66 0.0 0.0 0.00 0.00 0.00 91 1018.9
20181016043512 78 66 0.0 0.0 0.00 0.00 0.00 91 1018.8
20181016043017 78 68 0.0 0.0 0.00 0.00 0.00 91 1018.9
20181016042525 78 66 0.0 0.0 0.00 0.00 0.00 91 1018.9
20181016042024 77 66 0.0 0.0 0.00 0.00 0.00 91 1018.9
20181016041524 77 66 0.0 0.0 0.00 0.00 0.00 91 1018.9
20181016041022 77 66 0.0 0.0 0.00 0.00 0.00 91 1018.9
20181016040523 77 66 0.0 0.0 0.00 0.00 0.00 91 1018.9
20181016040026 77 66 0.0 0.0 0.00 0.00 0.00 91 1018.9
20181016035530 77 66 0.0 0.0 0.00 0.00 0.00 91 1019.0
20181016035018 77 66 0.0 0.0 0.00 0.00 0.00 91 1019.0
20181016034508 78 66 0.0 0.0 0.00 0.00 0.00 91 1019.0
20181016034012 78 66 0.0 0.0 0.00 0.00 0.00 91 1019.1
20181016033504 78 66 0.0 0.0 0.00 0.00 0.00 90 1019.1
20181016033002 78 66 0.0 0.0 0.00 0.00 0.00 90 1019.1
20181016032503 78 66 0.0 0.0 0.00 0.00 0.00 90 1019.0
20181016032012 78 66 0.0 0.0 0.00 0.00 0.00 90 1019.0
20181016031514 78 66 0.0 0.0 0.00 0.00 0.00 90 1018.9
20181016031022 78 66 0.0 0.0 0.00 0.00 0.00 89 1019.0
20181016030525 78 66 0.0 0.0 0.00 0.00 0.00 89 1019.0
20181016030017 78 66 0.0 0.0 0.00 0.00 0.00 89 1018.9
20181016025457 78 66 0.0 1.0 0.00 0.00 0.00 89 1018.9
20181016025044 78 66 0.0 1.0 0.00 0.00 0.00 88 1018.8
20181016024529 78 66 0.0 0.0 0.00 0.00 0.00 88 1018.7
20181016024010 78 66 0.0 0.0 0.00 0.00 0.00 87 1018.7
20181016023448 79 66 0.0 0.0 0.00 0.00 0.00 87 1018.7
20181016023031 79 66 0.0 2.0 0.00 0.00 0.00 87 1018.6
20181016022458 79 66 1.0 2.0 0.00 0.00 0.00 87 1018.5
20181016022030 79 66 0.0 2.0 0.00 0.00 0.00 86 1018.6
20181016021502 79 66 0.0 2.0 0.00 0.00 0.00 86 1018.5
20181016021040 79 66 0.0 2.0 0.00 0.00 0.00 86 1018.5
20181016020511 80 66 0.0 1.0 0.00 0.00 0.00 85 1018.6
20181016020052 80 66 0.0 0.0 0.00 0.00 0.00 85 1018.5
20181016015522 80 66 0.0 0.0 0.00 0.00 0.00 85 1018.5
20181016015100 80 66 0.0 0.0 0.00 0.00 0.00 85 1018.4
20181016014531 80 66 0.0 0.0 0.00 0.00 0.00 84 1018.4
20181016014059 80 66 0.0 0.0 0.00 0.00 0.00 84 1018.5
20181016013536 80 66 0.0 2.0 0.00 0.00 0.00 84 1018.5
20181016013102 80 66 0.0 4.0 0.00 0.00 0.00 84 1018.4
20181016012524 80 66 0.0 4.0 0.00 0.00 0.00 84 1018.3
20181016012104 80 111 1.0 3.0 0.00 0.00 0.00 83 1018.2
20181016011535 80 111 2.0 3.0 0.00 0.00 0.00 83 1018.1
20181016011115 81 107 0.0 2.0 0.00 0.00 0.00 83 1018.1
20181016010532 81 106 1.0 2.0 0.00 0.00 0.00 82 1018.0
20181016010005 81 106 0.0 4.0 0.00 0.00 0.00 82 1018.1
20181016005452 81 109 2.0 4.0 0.00 0.00 0.00 82 1018.0
20181016005020 81 94 2.0 4.0 0.00 0.00 0.00 82 1018.0
20181016004456 81 68 1.0 4.0 0.00 0.00 0.00 82 1017.8
20181016004029 80 38 2.0 4.0 0.00 0.00 0.00 81 1017.8
20181016003458 80 79 1.0 5.0 0.00 0.00 0.00 81 1017.8
20181016003023 80 14 1.0 5.0 0.00 0.00 0.00 82 1017.7
20181016002503 79 71 2.0 7.0 0.00 0.00 0.00 82 1017.6
20181016002026 78 93 4.0 7.0 0.00 0.00 0.00 84 1017.4
20181016001511 78 59 1.0 7.0 0.00 0.00 0.00 85 1017.4
20181016001059 78 21 0.0 0.0 0.00 0.00 0.00 84 1017.3
20181016000529 78 21 0.0 0.0 0.00 0.00 0.00 84 1017.3
20181016000008 78 21 0.0 0.0 0.00 0.00 0.00 83 1017.3
20181015235449 78 21 0.0 0.0 0.00 0.00 0.00 84 1017.2
20181015235028 78 21 0.0 0.0 0.00 0.00 0.00 84 1017.2
20181015234508 78 21 0.0 0.0 0.00 0.00 0.00 84 1017.1
20181015234054 78 21 0.0 0.0 0.00 0.00 0.00 84 1017.1
20181015233533 79 21 0.0 0.0 0.00 0.00 0.00 83 1017.1
20181015233021 79 21 0.0 0.0 0.00 0.00 0.00 82 1017.2
20181015232525 79 21 0.0 0.0 0.00 0.00 0.00 81 1017.1
20181015232032 80 21 0.0 0.0 0.00 0.00 0.00 80 1017.1
20181015231525 80 21 0.0 0.0 0.00 0.00 0.00 80 1017.0
20181015231024 81 21 0.0 0.0 0.00 0.00 0.00 78 1017.0
20181015230527 81 21 0.0 0.0 0.00 0.00 0.00 77 1017.0
20181015230027 81 21 0.0 0.0 0.00 0.00 0.00 77 1017.0
20181015225527 82 21 0.0 0.0 0.00 0.00 0.00 76 1017.0
20181015225028 82 21 0.0 0.0 0.00 0.00 0.00 76 1017.0
20181015224531 83 21 0.0 0.0 0.00 0.00 0.00 75 1016.9
20181015224033 83 21 0.0 0.0 0.00 0.00 0.00 74 1016.9
20181015223438 84 21 0.0 0.0 0.00 0.00 0.00 73 1016.9
20181015222947 85 21 0.0 0.0 0.00 0.00 0.00 70 1016.9
20181015222526 85 21 0.0 1.0 0.00 0.00 0.00 69 1016.8
20181015222025 87 21 0.0 2.0 0.00 0.00 0.00 66 1016.8
20181015221530 88 21 0.0 2.0 0.00 0.00 0.00 63 1016.8
20181015221025 89 21 0.0 2.0 0.00 0.00 0.00 61 1016.8
20181015220526 89 21 0.0 4.0 0.00 0.00 0.00 60 1016.8
20181015220027 89 21 2.0 6.0 0.00 0.00 0.00 59 1016.7
20181015215521 89 20 1.0 6.0 0.00 0.00 0.00 59 1016.7
20181015215026 89 10 2.0 5.0 0.00 0.00 0.00 59 1016.7
20181015214526 90 44 2.0 5.0 0.00 0.00 0.00 59 1016.7
20181015214024 90 44 2.0 5.0 0.00 0.00 0.00 58 1016.6
20181015213525 90 3 3.0 5.0 0.00 0.00 0.00 58 1016.6
20181015213027 90 0 2.0 4.0 0.00 0.00 0.00 58 1016.7
20181015212517 90 1 2.0 3.0 0.00 0.00 0.00 58 1016.7
20181015212023 90 8 1.0 5.0 0.00 0.00 0.00 57 1016.7
20181015211527 91 21 2.0 5.0 0.00 0.00 0.00 55 1016.6
20181015211028 91 30 2.0 5.0 0.00 0.00 0.00 53 1016.7
20181015210532 92 42 3.0 5.0 0.00 0.00 0.00 54 1016.7
20181015205957 92 59 4.0 5.0 0.00 0.00 0.00 53 1016.7
20181015205429 92 107 2.0 6.0 0.00 0.00 0.00 54 1016.6
20181015205042 92 80 2.0 6.0 0.00 0.00 0.00 54 1016.5
20181015204442 92 63 2.0 6.0 0.00 0.00 0.00 53 1016.6
20181015204049 92 38 4.0 6.0 0.00 0.00 0.00 53 1016.6
20181015203447 92 111 3.0 6.0 0.00 0.00 0.00 53 1016.5
20181015203055 92 0 4.0 5.0 0.00 0.00 0.00 53 1016.5
20181015202431 92 56 2.0 5.0 0.00 0.00 0.00 53 1016.5
20181015202039 92 0 3.0 5.0 0.00 0.00 0.00 53 1016.6
20181015201450 92 7 3.0 5.0 0.00 0.00 0.00 54 1016.6
20181015201057 91 6 2.0 6.0 0.00 0.00 0.00 54 1016.6
20181015200455 92 39 2.0 7.0 0.00 0.00 0.00 53 1016.6
20181015195958 92 20 4.0 7.0 0.00 0.00 0.00 52 1016.7
20181015195504 93 20 4.0 7.0 0.00 0.00 0.00 53 1016.7
20181015194959 92 334 3.0 6.0 0.00 0.00 0.00 54 1016.6
20181015194458 92 25 4.0 6.0 0.00 0.00 0.00 55 1016.6
20181015193956 92 6 4.0 6.0 0.00 0.00 0.00 56 1016.7
20181015193502 92 313 4.0 6.0 0.00 0.00 0.00 56 1016.6
20181015193002 92 18 2.0 6.0 0.00 0.00 0.00 57 1016.6
20181015192506 92 8 4.0 6.0 0.00 0.00 0.00 55 1016.7
20181015192009 93 10 4.0 6.0 0.00 0.00 0.00 55 1016.7
20181015191515 93 4 3.0 6.0 0.00 0.00 0.00 56 1016.7
20181015191020 92 100 3.0 6.0 0.00 0.00 0.00 55 1016.7
20181015190522 92 76 4.0 6.0 0.00 0.00 0.00 57 1016.8
20181015190019 91 171 2.0 5.0 0.00 0.00 0.00 56 1016.8
20181015185520 89 30 3.0 5.0 0.00 0.00 0.00 58 1016.9
20181015185023 89 65 1.0 4.0 0.00 0.00 0.00 59 1017.0
20181015184525 89 120 2.0 9.0 0.00 0.00 0.00 59 1017.2
20181015184024 91 155 2.0 9.0 0.00 0.00 0.00 56 1017.1
20181015183424 90 100 2.0 5.0 0.00 0.00 0.00 57 1017.1
20181015183029 90 353 2.0 4.0 0.00 0.00 0.00 56 1017.2
20181015182425 90 127 2.0 6.0 0.00 0.00 0.00 55 1017.2
20181015182024 91 336 4.0 6.0 0.00 0.00 0.00 54 1017.3
20181015181421 90 34 4.0 5.0 0.00 0.00 0.00 59 1017.4
20181015181033 89 312 2.0 5.0 0.00 0.00 0.00 61 1017.5
20181015180433 89 341 3.0 5.0 0.00 0.00 0.00 58 1017.5
20181015180040 89 45 2.0 4.0 0.00 0.00 0.00 58 1017.6
20181015175541 90 114 2.0 4.0 0.00 0.00 0.00 58 1017.7
20181015175027 89 186 1.0 5.0 0.00 0.00 0.00 61 1017.8
20181015174427 89 180 2.0 5.0 0.00 0.00 0.00 62 1017.8
20181015174024 88 114 1.0 5.0 0.00 0.00 0.00 63 1018.0
20181015173518 88 172 2.0 3.0 0.00 0.00 0.00 64 1018.1
20181015173016 88 202 1.0 5.0 0.00 0.00 0.00 63 1018.1
20181015172525 89 114 2.0 5.0 0.00 0.00 0.00 60 1018.3
20181015172026 90 45 2.0 5.0 0.00 0.00 0.00 60 1018.2
20181015171525 90 180 2.0 6.0 0.00 0.00 0.00 61 1018.3
20181015171024 90 221 3.0 7.0 0.00 0.00 0.00 63 1018.4
20181015170525 90 180 3.0 7.0 0.00 0.00 0.00 62 1018.3
20181015170028 89 116 2.0 4.0 0.00 0.00 0.00 63 1018.4
20181015165431 89 245 3.0 5.0 0.00 0.00 0.00 63 1018.5
20181015165039 89 157 2.0 5.0 0.00 0.00 0.00 63 1018.5
20181015164442 89 109 3.0 6.0 0.00 0.00 0.00 63 1018.6
20181015163950 88 155 2.0 6.0 0.00 0.00 0.00 65 1018.6
20181015163456 88 188 2.0 6.0 0.00 0.00 0.00 65 1018.6
20181015162959 88 110 3.0 6.0 0.00 0.00 0.00 66 1018.6
20181015162502 88 78 4.0 6.0 0.00 0.00 0.00 64 1018.7
20181015162005 88 175 2.0 5.0 0.00 0.00 0.00 66 1018.8
20181015161511 87 183 3.0 5.0 0.00 0.00 0.00 67 1018.8
20181015161013 87 142 3.0 5.0 0.00 0.00 0.00 68 1018.9
20181015160519 87 113 4.0 7.0 0.00 0.00 0.00 67 1018.9
20181015160026 87 193 4.0 11.0 0.00 0.00 0.00 69 1019.0
20181015155427 87 158 5.0 11.0 0.00 0.00 0.00 69 1019.0
20181015155022 87 190 2.0 10.0 0.00 0.00 0.00 72 1019.0
20181015154520 87 123 4.0 10.0 0.00 0.00 0.00 70 1019.1
20181015154022 87 219 1.0 5.0 0.00 0.00 0.00 74 1019.1
20181015153517 86 223 2.0 5.0 0.00 0.00 0.00 73 1019.1
20181015153019 86 182 1.0 5.0 0.00 0.00 0.00 73 1019.2
20181015152520 86 59 4.0 5.0 0.00 0.00 0.00 72 1019.1
20181015152023 85 217 2.0 5.0 0.00 0.00 0.00 74 1019.2
20181015151523 85 99 3.0 5.0 0.00 0.00 0.00 73 1019.2
20181015151022 85 133 3.0 5.0 0.00 0.00 0.00 74 1019.3
20181015150422 84 82 2.0 5.0 0.00 0.00 0.00 76 1019.3
20181015150031 84 138 3.0 5.0 0.00 0.00 0.00 77 1019.3
20181015145436 84 75 2.0 7.0 0.00 0.00 0.00 78 1019.3
20181015145041 84 204 5.0 7.0 0.00 0.00 0.00 78 1019.4
20181015144439 84 66 2.0 7.0 0.00 0.00 0.00 80 1019.3
20181015144038 84 114 2.0 7.0 0.00 0.00 0.00 80 1019.3
20181015143434 83 199 3.0 7.0 0.00 0.00 0.00 81 1019.3
20181015143046 83 133 3.0 5.0 0.00 0.00 0.00 82 1019.2
20181015142441 82 189 4.0 6.0 0.00 0.00 0.00 84 1019.2
20181015141945 82 107 2.0 6.0 0.00 0.00 0.00 83 1019.3
20181015141452 82 110 2.0 6.0 0.00 0.00 0.00 84 1019.3
20181015140958 82 89 2.0 5.0 0.00 0.00 0.00 84 1019.3
20181015140500 81 55 1.0 5.0 0.00 0.00 0.00 85 1019.2
20181015140004 81 100 2.0 5.0 0.00 0.00 0.00 87 1019.2
20181015135514 80 118 3.0 5.0 0.00 0.00 0.00 87 1019.3
20181015135017 80 109 4.0 5.0 0.00 0.00 0.00 88 1019.3
20181015134422 80 117 3.0 5.0 0.00 0.00 0.00 87 1019.2
20181015134032 79 109 1.0 5.0 0.00 0.00 0.00 88 1019.3
20181015133434 79 89 1.0 5.0 0.00 0.00 0.00 89 1019.3
20181015133045 78 123 2.0 5.0 0.00 0.00 0.00 90 1019.4
20181015132446 78 102 2.0 6.0 0.00 0.00 0.00 91 1019.3
20181015131952 78 89 3.0 6.0 0.00 0.00 0.00 91 1019.3
20181015131459 77 123 0.0 3.0 0.00 0.00 0.00 93 1019.3
20181015131000 76 124 1.0 3.0 0.00 0.00 0.00 95 1019.2
20181015130502 75 96 0.0 2.0 0.00 0.00 0.00 96 1019.2
20181015130001 74 59 0.0 0.0 0.00 0.00 0.00 97 1019.1
20181015125511 73 59 0.0 0.0 0.00 0.00 0.00 98 1019.2
20181015125015 72 59 0.0 0.0 0.00 0.00 0.00 98 1019.2
20181015124418 71 59 0.0 0.0 0.00 0.00 0.00 98 1019.2
20181015124018 70 59 0.0 0.0 0.00 0.00 0.00 98 1019.1
20181015123418 70 59 0.0 0.0 0.00 0.00 0.00 98 1019.0
20181015123029 69 59 0.0 0.0 0.00 0.00 0.00 98 1018.9
20181015122433 68 59 0.0 0.0 0.00 0.00 0.00 98 1018.9
20181015122037 67 59 0.0 0.0 0.00 0.00 0.00 98 1018.8
20181015121441 67 59 0.0 0.0 0.00 0.00 0.00 98 1018.8
20181015121040 67 59 0.0 0.0 0.00 0.00 0.00 98 1018.8
20181015120442 67 59 0.0 0.0 0.00 0.00 0.00 97 1018.7
20181015115944 66 59 0.0 0.0 0.00 0.00 0.00 97 1018.7
20181015115453 67 59 0.0 0.0 0.00 0.00 0.00 97 1018.7
20181015114957 66 59 0.0 0.0 0.00 0.00 0.00 97 1018.7
20181015114500 66 59 0.0 0.0 0.00 0.00 0.00 97 1018.6
20181015114004 66 59 0.0 0.0 0.00 0.00 0.00 97 1018.5
20181015113504 66 59 0.0 0.0 0.00 0.00 0.00 97 1018.6
20181015113012 66 59 0.0 0.0 0.00 0.00 0.00 97 1018.6
20181015112518 66 59 0.0 0.0 0.00 0.00 0.00 97 1018.6
20181015112021 66 59 0.0 0.0 0.00 0.00 0.00 97 1018.7
20181015111425 66 59 0.0 0.0 0.00 0.00 0.00 97 1018.6
20181015111036 66 59 0.0 0.0 0.00 0.00 0.00 97 1018.6
20181015110437 66 59 0.0 0.0 0.00 0.00 0.00 97 1018.6
20181015105946 66 59 0.0 0.0 0.00 0.00 0.00 97 1018.5
20181015105451 66 59 0.0 0.0 0.00 0.00 0.00 97 1018.6
20181015105000 66 59 0.0 0.0 0.00 0.00 0.00 97 1018.5
20181015104514 66 59 0.0 0.0 0.00 0.00 0.00 97 1018.4
20181015104023 66 59 0.0 0.0 0.00 0.00 0.00 97 1018.3
20181015103418 66 59 0.0 0.0 0.00 0.00 0.00 97 1018.2
20181015103031 66 59 0.0 0.0 0.00 0.00 0.00 97 1018.2
20181015102433 66 59 0.0 0.0 0.00 0.00 0.00 97 1018.1
20181015101941 66 59 0.0 0.0 0.00 0.00 0.00 97 1018.0
20181015101444 66 59 0.0 0.0 0.00 0.00 0.00 97 1017.9
20181015100957 66 59 0.0 0.0 0.00 0.00 0.00 97 1017.9
20181015100503 66 59 0.0 0.0 0.00 0.00 0.00 97 1017.9
20181015100007 67 59 0.0 0.0 0.00 0.00 0.00 97 1017.9
20181015095514 67 59 0.0 0.0 0.00 0.00 0.00 97 1017.8
20181015095022 67 59 0.0 0.0 0.00 0.00 0.00 97 1017.8
20181015094427 67 59 0.0 0.0 0.00 0.00 0.00 97 1017.7
20181015093934 67 59 0.0 0.0 0.00 0.00 0.00 97 1017.7
20181015093442 67 59 0.0 0.0 0.00 0.00 0.00 97 1017.7
20181015092951 67 59 0.0 0.0 0.00 0.00 0.00 97 1017.6
20181015092457 67 59 0.0 0.0 0.00 0.00 0.00 97 1017.6
20181015092005 67 59 0.0 0.0 0.00 0.00 0.00 97 1017.6
20181015091520 67 59 0.0 0.0 0.00 0.00 0.00 97 1017.6
20181015091016 67 59 0.0 0.0 0.00 0.00 0.00 97 1017.6
20181015090420 67 59 0.0 0.0 0.00 0.00 0.00 97 1017.6
20181015090032 67 59 0.0 0.0 0.00 0.00 0.00 97 1017.5
20181015085433 67 59 0.0 0.0 0.00 0.00 0.00 97 1017.6
20181015084938 67 59 0.0 0.0 0.00 0.00 0.00 97 1017.5
20181015084446 67 59 0.0 0.0 0.00 0.00 0.00 97 1017.5
20181015083956 67 59 0.0 0.0 0.00 0.00 0.00 97 1017.6
20181015083500 67 59 0.0 0.0 0.00 0.00 0.00 97 1017.7
20181015083007 67 59 0.0 0.0 0.00 0.00 0.00 97 1017.7
20181015082513 67 59 0.0 0.0 0.00 0.00 0.00 97 1017.8
20181015082017 67 59 0.0 0.0 0.00 0.00 0.00 97 1017.7
20181015081412 67 59 0.0 0.0 0.00 0.00 0.00 97 1017.8
20181015081021 67 59 0.0 0.0 0.00 0.00 0.00 97 1017.8
20181015080422 67 59 0.0 0.0 0.00 0.00 0.00 97 1017.8
20181015080033 67 59 0.0 0.0 0.00 0.00 0.00 96 1017.8
20181015075435 67 59 0.0 0.0 0.00 0.00 0.00 96 1017.8
20181015074957 68 59 0.0 0.0 0.00 0.00 0.00 96 1017.9
20181015074436 68 59 0.0 0.0 0.00 0.00 0.00 96 1017.9
20181015073941 68 59 0.0 0.0 0.00 0.00 0.00 96 1018.0
20181015073445 68 59 0.0 0.0 0.00 0.00 0.00 96 1018.0
20181015072957 68 59 0.0 0.0 0.00 0.00 0.00 96 1017.9
20181015072503 68 59 0.0 0.0 0.00 0.00 0.00 96 1018.0
20181015072013 68 59 0.0 0.0 0.00 0.00 0.00 96 1017.9
20181015071417 68 59 0.0 0.0 0.00 0.00 0.00 96 1018.0
20181015071025 68 59 0.0 0.0 0.00 0.00 0.00 96 1017.9
20181015070424 68 59 0.0 0.0 0.00 0.00 0.00 96 1017.9
20181015070036 68 59 0.0 0.0 0.00 0.00 0.00 96 1017.9
20181015065438 68 59 0.0 0.0 0.00 0.00 0.00 96 1018.0
20181015064940 68 59 0.0 0.0 0.00 0.00 0.00 96 1017.9
20181015064447 68 59 0.0 0.0 0.00 0.00 0.00 96 1017.9
20181015063952 69 59 0.0 0.0 0.00 0.00 0.00 96 1017.9
20181015063505 69 59 0.0 0.0 0.00 0.00 0.00 95 1017.9
20181015063015 69 59 0.0 0.0 0.00 0.00 0.00 95 1018.0
20181015062418 69 59 0.0 0.0 0.00 0.00 0.00 95 1017.9
20181015062021 69 59 0.0 0.0 0.00 0.00 0.00 95 1017.9
20181015061425 69 59 0.0 0.0 0.00 0.00 0.00 95 1017.9
20181015061036 69 59 0.0 0.0 0.00 0.00 0.00 95 1017.9
20181015060443 69 59 0.0 0.0 0.00 0.00 0.00 95 1017.9
20181015055952 69 59 0.0 0.0 0.00 0.00 0.00 95 1017.9
20181015055500 70 59 0.0 0.0 0.00 0.00 0.00 95 1017.9
20181015054956 70 59 0.0 0.0 0.00 0.00 0.00 95 1017.8
20181015054505 69 59 0.0 0.0 0.00 0.00 0.00 94 1017.9
20181015054007 69 59 0.0 0.0 0.00 0.00 0.00 94 1017.9
20181015053408 70 59 0.0 0.0 0.00 0.00 0.00 94 1017.9